This is the latest recevied weather packets stored in our database for station/object N7WSS. If no packets are shown the sender has not sent any weather packets the latest 10 day(s).
| Time | Temp. | Humidity | Pressure | Rain* | Wind** | Luminosity | Snow |
|---|---|---|---|---|---|---|---|
| 1777214744 | 20° C | 25% | 1009.1 hPa | 0 mm | - | - | - |
| 1777214443 | 19.44° C | 25% | 1008.8 hPa | 0 mm | - | - | - |
| 1777214138 | 17.78° C | 26% | 1008.8 hPa | 0 mm | - | - | - |
| 1777213833 | 17.78° C | 26% | 1008.9 hPa | 0 mm | - | - | - |
| 1777213527 | 17.78° C | 26% | 1008.9 hPa | 0 mm | - | - | - |
| 1777213225 | 17.78° C | 25% | 1008.9 hPa | 0 mm | - | - | - |
| 1777212921 | 17.78° C | 25% | 1008.8 hPa | 0 mm | - | - | - |
| 1777212620 | 17.78° C | 25% | 1008.7 hPa | 0 mm | - | - | - |
| 1777212317 | 17.78° C | 25% | 1008.5 hPa | 0 mm | - | - | - |
| 1777212014 | 17.78° C | 25% | 1008.4 hPa | 0 mm | - | - | - |
| 1777211709 | 17.78° C | 25% | 1008.4 hPa | 0 mm | - | - | - |
| 1777211408 | 17.78° C | 24% | 1008.4 hPa | 0 mm | - | - | - |
| 1777211103 | 18.33° C | 24% | 1008.4 hPa | 0 mm | - | - | - |
| 1777210801 | 18.33° C | 24% | 1008.2 hPa | 0 mm | - | - | - |
| 1777210499 | 18.33° C | 24% | 1008.3 hPa | 0 mm | - | - | - |
| 1777210196 | 18.89° C | 23% | 1008.3 hPa | 0 mm | - | - | - |
| 1777209893 | 18.89° C | 23% | 1007.8 hPa | 0 mm | - | - | - |
| 1777209588 | 18.33° C | 23% | 1008 hPa | 0 mm | - | - | - |
| 1777209284 | 18.33° C | 23% | 1007.9 hPa | 0 mm | - | - | - |
| 1777208982 | 18.33° C | 23% | 1007.7 hPa | 0 mm | - | - | - |
| 1777208677 | 18.33° C | 22% | 1007.8 hPa | 0 mm | - | - | - |
| 1777208373 | 18.33° C | 22% | 1007.6 hPa | 0 mm | - | - | - |
| 1777208070 | 18.33° C | 22% | 1007.5 hPa | 0 mm | - | - | - |
| 1777207766 | 18.33° C | 22% | 1007.2 hPa | 0 mm | - | - | - |
| 1777207461 | 18.33° C | 22% | 1007.5 hPa | 0 mm | - | - | - |
* Rain latest hour (hover to see other rain measurements)
** Current wind speed in m/s (hover to see current wind gust speed)